Weather History for KBLM - May, 2013

Change the Weather History Date:

Sunday, May 5, 2013

  Actual Average Record
Temperature  
Mean Temperature 48 °F -  
Max Temperature 53 °F 64 °F 84 °F (2000)
Min Temperature 44 °F 48 °F 37 °F (2003)
Degree Days  
Heating Degree Days 16    
Moisture  
Dew Point 40 °F    
Average Humidity 72    
Maximum Humidity 93    
Minimum Humidity 58    
Precipitation  
Precipitation 0.00 in - - ()
Sea Level Pressure  
Sea Level Pressure 30.26 in    
Wind  
Wind Speed 9 mph (East)    
Max Wind Speed 15 mph    
Max Gust Speed 21 mph    
Visibility 10 miles    
Events      
Averages and records for this station are not official NWS values.
T = Trace of Precipitation, MM = Missing Value Source: NWS Daily Summary

Daily Weather History Graph

Daily Weather History Graph

Search for Another Location

Airport or City:

Trip Planner

Search our weather history database for the weather conditions in past years. The results will help you decide how hot, cold, wet, or windy it might be!

Date:

Astronomy

May. 05, 2013 Rise Set
Actual Time 5:51 AM EDT 7:55 PM EDT
Civil Twilight 5:21 AM EDT 8:25 PM EDT
Nautical Twilight 4:44 AM EDT 9:02 PM EDT
Astronomical Twilight 4:05 AM EDT 9:42 PM EDT
Moon 3:20 AM EDT (5/5) 3:52 PM EDT (5/5)
Length of Visible Light 15h 04m
Length of Day
14h 04m
Waning Crescent, 18% of the Moon is Illuminated
May 5
Waning Crescent
May 9
New
May 18
First Quarter
May 25
Full
May 31
Last Quarter

Hourly Weather History & Observations

Time (EDT) Temp. Windchill Dew Point Humidity Pressure Visibility Wind Dir Wind Speed Gust Speed Precip Events Conditions
12:15 AM 46.4 °F 42.4 °F 39.2 °F 76% 30.29 in 10.0 mi East 8.1 mph - N/A   Partly Cloudy
12:35 AM 46.4 °F 43.5 °F 39.2 °F 76% 30.29 in 10.0 mi East 5.8 mph - N/A   Scattered Clouds
12:55 AM 46.4 °F 42.9 °F 39.2 °F 76% 30.28 in 10.0 mi East 6.9 mph - N/A   Scattered Clouds
1:15 AM 46.4 °F 42.9 °F 39.2 °F 76% 30.28 in 10.0 mi ENE 6.9 mph - N/A   Clear
1:35 AM 46.4 °F 43.5 °F 39.2 °F 76% 30.27 in 10.0 mi East 5.8 mph - N/A   Clear
1:55 AM 46.4 °F 43.5 °F 39.2 °F 76% 30.26 in 10.0 mi East 5.8 mph - N/A   Mostly Cloudy
2:15 AM 46.4 °F 45.2 °F 39.2 °F 76% 30.26 in 10.0 mi ENE 3.5 mph - N/A   Overcast
2:35 AM 46.4 °F 42.4 °F 41.0 °F 81% 30.26 in 10.0 mi ENE 8.1 mph - N/A   Overcast
2:55 AM 46.4 °F 42.4 °F 39.2 °F 76% 30.25 in 10.0 mi ENE 8.1 mph - N/A   Overcast
3:15 AM 46.4 °F 41.1 °F 37.4 °F 71% 30.25 in 10.0 mi East 11.5 mph - N/A   Overcast
3:35 AM 46.4 °F 41.9 °F 37.4 °F 71% 30.25 in 10.0 mi East 9.2 mph - N/A   Overcast
3:55 AM 46.4 °F 41.9 °F 37.4 °F 71% 30.26 in 10.0 mi ENE 9.2 mph - N/A   Scattered Clouds
4:15 AM 46.4 °F 42.4 °F 37.4 °F 71% 30.25 in 10.0 mi ENE 8.1 mph - N/A   Mostly Cloudy
4:35 AM 46.4 °F 40.4 °F 37.4 °F 71% 30.25 in 10.0 mi ENE 13.8 mph 17.3 mph N/A   Overcast
4:55 AM 46.4 °F 41.9 °F 37.4 °F 71% 30.25 in 10.0 mi ENE 9.2 mph 18.4 mph N/A   Overcast
5:15 AM 46.4 °F 41.5 °F 37.4 °F 71% 30.25 in 10.0 mi ENE 10.4 mph - N/A   Mostly Cloudy
5:35 AM 44.6 °F 40.2 °F 35.6 °F 71% 30.25 in 10.0 mi NE 8.1 mph - N/A   Mostly Cloudy
5:55 AM 44.6 °F 41.4 °F 35.6 °F 71% 30.25 in 10.0 mi ENE 5.8 mph - N/A   Mostly Cloudy
6:15 AM 46.4 °F 41.5 °F 37.4 °F 71% 30.25 in 10.0 mi ENE 10.4 mph 16.1 mph N/A   Overcast
6:35 AM 46.4 °F 41.9 °F 37.4 °F 71% 30.26 in 10.0 mi ENE 9.2 mph - N/A   Overcast
6:55 AM 46.4 °F 42.9 °F 39.2 °F 76% 30.27 in 10.0 mi NE 6.9 mph 16.1 mph N/A   Overcast
7:15 AM 46.4 °F 41.9 °F 39.2 °F 76% 30.27 in 10.0 mi NE 9.2 mph - N/A   Overcast
7:35 AM 46.4 °F 40.4 °F 39.2 °F 76% 30.27 in 10.0 mi ENE 13.8 mph 19.6 mph N/A   Overcast
7:55 AM 46.4 °F 41.1 °F 39.2 °F 76% 30.27 in 10.0 mi ENE 11.5 mph - N/A   Overcast
8:15 AM 46.4 °F 41.1 °F 39.2 °F 76% 30.28 in 10.0 mi NE 11.5 mph - N/A   Overcast
8:35 AM 46.4 °F 40.7 °F 37.4 °F 71% 30.28 in 10.0 mi ENE 12.7 mph 20.7 mph N/A   Overcast
8:55 AM 48.2 °F - 39.2 °F 71% 30.29 in 10.0 mi ENE 10.4 mph 19.6 mph N/A   Overcast
9:15 AM 48.2 °F - 37.4 °F 66% 30.29 in 10.0 mi ENE 12.7 mph - N/A   Overcast
9:35 AM 48.2 °F - 39.2 °F 71% 30.30 in 10.0 mi ENE 9.2 mph - N/A   Overcast
9:55 AM 48.2 °F - 39.2 °F 71% 30.30 in 10.0 mi NE 9.2 mph - N/A   Overcast
10:15 AM 48.2 °F - 39.2 °F 71% 30.30 in 10.0 mi ENE 8.1 mph - N/A   Overcast
10:35 AM 50.0 °F - 39.2 °F 66% 30.29 in 10.0 mi East 12.7 mph 16.1 mph N/A   Overcast
10:55 AM 50.0 °F - 37.4 °F 62% 30.30 in 10.0 mi East 10.4 mph - N/A   Mostly Cloudy
11:15 AM 50.0 °F - 39.2 °F 66% 30.29 in 10.0 mi East 13.8 mph 20.7 mph N/A   Mostly Cloudy
11:35 AM 51.8 °F - 39.2 °F 62% 30.29 in 10.0 mi East 15.0 mph 20.7 mph N/A   Overcast
11:55 AM 51.8 °F - 39.2 °F 62% 30.29 in 10.0 mi East 12.7 mph - N/A   Overcast
12:15 PM 51.8 °F - 41.0 °F 67% 30.28 in 10.0 mi ESE 13.8 mph 17.3 mph N/A   Mostly Cloudy
12:35 PM 51.8 °F - 41.0 °F 67% 30.28 in 10.0 mi ENE 11.5 mph - N/A   Mostly Cloudy
12:55 PM 51.8 °F - 39.2 °F 62% 30.28 in 10.0 mi ESE 11.5 mph 17.3 mph N/A   Mostly Cloudy
1:15 PM 51.8 °F - 41.0 °F 67% 30.28 in 10.0 mi East 12.7 mph 19.6 mph N/A   Mostly Cloudy
1:35 PM 53.6 °F - 42.8 °F 67% 30.27 in 10.0 mi ESE 13.8 mph 17.3 mph N/A   Mostly Cloudy
2:15 PM 53.6 °F - 39.2 °F 58% 30.27 in 10.0 mi East 12.7 mph - N/A   Scattered Clouds
2:35 PM 53.6 °F - 41.0 °F 62% 30.28 in 10.0 mi East 11.5 mph 19.6 mph N/A   Partly Cloudy
2:55 PM 53.6 °F - 41.0 °F 62% 30.27 in 10.0 mi ESE 12.7 mph 17.3 mph N/A   Scattered Clouds
3:15 PM 53.6 °F - 42.8 °F 67% 30.27 in 10.0 mi East 12.7 mph 17.3 mph N/A   Mostly Cloudy
3:35 PM 53.6 °F - 42.8 °F 67% 30.26 in 10.0 mi East 15.0 mph 19.6 mph N/A   Mostly Cloudy
3:55 PM 53.6 °F - 41.0 °F 62% 30.26 in 10.0 mi East 11.5 mph 18.4 mph N/A   Scattered Clouds
4:15 PM 53.6 °F - 39.2 °F 58% 30.26 in 10.0 mi ESE 13.8 mph - N/A   Clear
4:35 PM 53.6 °F - 41.0 °F 62% 30.25 in 10.0 mi East 11.5 mph - N/A   Clear
4:55 PM 51.8 °F - 41.0 °F 67% 30.25 in 10.0 mi East 10.4 mph - N/A   Clear
5:15 PM 53.6 °F - 41.0 °F 62% 30.25 in 10.0 mi ENE 9.2 mph - N/A   Clear
5:35 PM 51.8 °F - 41.0 °F 67% 30.24 in 10.0 mi East 12.7 mph - N/A   Clear
5:55 PM 51.8 °F - 41.0 °F 67% 30.24 in 10.0 mi East 10.4 mph - N/A   Clear
6:15 PM 51.8 °F - 41.0 °F 67% 30.24 in 10.0 mi East 10.4 mph - N/A   Clear
6:35 PM 51.8 °F - 41.0 °F 67% 30.24 in 10.0 mi ESE 9.2 mph - N/A   Clear
6:55 PM 50.0 °F - 41.0 °F 71% 30.24 in 10.0 mi ESE 5.8 mph - N/A   Clear
7:15 PM 48.2 °F - 41.0 °F 76% 30.24 in 10.0 mi ESE 3.5 mph - N/A   Clear
7:35 PM 48.2 °F - 41.0 °F 76% 30.25 in 10.0 mi East 5.8 mph - N/A   Clear
8:15 PM 48.2 °F - 42.8 °F 82% 30.25 in 10.0 mi East 6.9 mph - N/A   Clear
8:35 PM 46.4 °F 42.9 °F 42.8 °F 87% 30.25 in 10.0 mi East 6.9 mph - N/A   Clear
8:55 PM 46.4 °F 43.5 °F 42.8 °F 87% 30.25 in 10.0 mi ENE 5.8 mph - N/A   Clear
9:15 PM 46.4 °F 43.5 °F 42.8 °F 87% 30.25 in 10.0 mi East 5.8 mph - N/A   Clear
9:35 PM 46.4 °F 44.3 °F 42.8 °F 87% 30.25 in 10.0 mi East 4.6 mph - N/A   Partly Cloudy
9:55 PM 46.4 °F 44.3 °F 42.8 °F 87% 30.25 in 10.0 mi ENE 4.6 mph - N/A   Mostly Cloudy
10:35 PM 46.4 °F 42.9 °F 42.8 °F 87% 30.25 in 10.0 mi East 6.9 mph - N/A   Overcast
10:55 PM 46.4 °F 42.9 °F 44.6 °F 93% 30.25 in 10.0 mi East 6.9 mph - N/A   Overcast
11:15 PM 48.2 °F - 44.6 °F 87% 30.25 in 10.0 mi East 8.1 mph - N/A   Overcast
11:35 PM 48.2 °F - 44.6 °F 87% 30.24 in 10.0 mi East 8.1 mph - N/A   Overcast
11:55 PM 48.2 °F - 44.6 °F 87% 30.24 in 10.0 mi ENE 6.9 mph - N/A   Overcast